Stations météo

réclame
Mon MeteoGroup
Edsbyn, Suède (2336): Température de l'air & dewpoint: 17.10.2018 22:00:00 - 23.10.2018 22:00:00 (CEST)Edsbyn, Suède (2336): Vitesse du vent: 17.10.2018 22:00:00 - 23.10.2018 22:00:00 (CEST)Edsbyn, Suède (2336): Direction du vent: 17.10.2018 22:00:00 - 23.10.2018 22:00:00 (CEST)Edsbyn, Suède (2336): reduced air pressure: 17.10.2018 22:00:00 - 23.10.2018 22:00:00 (CEST)Edsbyn, Suède (2336): visibility: 17.10.2018 22:00:00 - 23.10.2018 22:00:00 (CEST)
Date & Time tt [°C] td [°C] ff [km/h] ff [knt] dd ppp [hPa] vv [km]
23.10.2018 22:00:00 2,5 -0,3 18 10 NW 994,4 50
23.10.2018 21:00:00 2,7 0,4 14 8 NW 993,4 50
23.10.2018 20:00:00 2,7 1,1 7 4 NW 993,0 50
23.10.2018 19:00:00 3,2 0,8 22 12 NW 992,5 28
23.10.2018 18:00:00 4,2 0,5 18 10 NW 991,9 50
23.10.2018 17:00:00 4,7 0,1 11 6 NW 991,4 50
23.10.2018 16:00:00 5,4 1,1 11 6 WNW 991,3 50
23.10.2018 15:00:00 5,8 2,1 7 4 N 991,0 50
23.10.2018 14:00:00 5,6 1,5 11 6 NW 991,1 50
23.10.2018 13:00:00 5,4 1,3 14 8 NW 991,0 50
23.10.2018 12:00:00 4,6 0,9 14 8 NW 991,2 50
23.10.2018 11:00:00 4,3 0,4 14 8 NW 991,1 50
23.10.2018 10:00:00 1,9 -0,8 14 8 NW 991,1 50
23.10.2018 09:00:00 0,8 -1,4 18 10 NW 991,5 50
23.10.2018 08:00:00 0,3 -1,1 14 8 NW 991,5 50
23.10.2018 07:00:00 -0,4 -1,4 11 6 NW 992,1 50
23.10.2018 06:00:00 -1,3 -1,9 4 2 NNW 992,5 50
23.10.2018 05:00:00 -0,9 -1,5 11 6 NW 993,4 50
23.10.2018 04:00:00 -1,1 -1,5 7 4 WNW 994,5 50
23.10.2018 03:00:00 -0,8 -1,4 4 2 WNW 996,3 9
23.10.2018 02:00:00 -0,4 -0,8 4 2 WNW 997,9 50
23.10.2018 01:00:00 -0,9 -1,3 7 4 NNW 999,6 50
23.10.2018 00:00:00 -0,8 -1,4 0 0 N 1000,9 50
22.10.2018 23:00:00 -0,2 -0,5 4 2 S 1002,5 50
22.10.2018 22:00:00 -1,1 -1,8 4 2 N 1003,3 50
22.10.2018 21:00:00 1,5 -3,6 4 2 W 1003,8 50
22.10.2018 20:00:00 1,8 0,0 0 0 N 1004,3 50
22.10.2018 19:00:00 5,9 -0,8 7 4 W 1004,4 50
22.10.2018 18:00:00 6,9 -0,6 14 8 W 1004,5 50
22.10.2018 17:00:00 7,4 -0,8 18 10 W 1004,2 50
22.10.2018 16:00:00 8,1 -0,4 14 8 W 1003,9 50
22.10.2018 15:00:00 8,3 -0,5 18 10 W 1003,8 50
22.10.2018 14:00:00 8,0 -0,2 18 10 W 1004,1 40
22.10.2018 13:00:00 7,6 0,3 14 8 W 1003,9 35
22.10.2018 12:00:00 7,0 2,3 4 2 W 1004,5 40
22.10.2018 11:00:00 5,3 4,7 4 2 S 1004,7 45
22.10.2018 10:00:00 1,5 1,5 4 2 N 1004,9 19
22.10.2018 09:00:00 -0,4 -0,4 4 2 ENE 1004,8 3,0
22.10.2018 08:00:00 -0,8 -0,8 4 2 N 1005,1 0,3
22.10.2018 07:00:00 -0,3 -0,3 4 2 NNE 1005,1 0,4
22.10.2018 06:00:00 -0,2 -0,2 4 2 ENE 1004,9 1,4
22.10.2018 05:00:00 1,3 1,2 0 0 N 1005,0 1,9
22.10.2018 04:00:00 2,0 1,7 4 2 E 1005,0 0,5
22.10.2018 03:00:00 3,0 2,9 7 4 S 1004,8 50
22.10.2018 02:00:00 5,1 4,5 4 2 S 1004,3 50
22.10.2018 01:00:00 5,1 4,5 4 2 WSW 1004,0 50
22.10.2018 00:00:00 5,5 4,6 11 6 WNW 1003,7 50
21.10.2018 23:00:00 6,3 5,7 14 8 WNW 1003,0 18
21.10.2018 22:00:00 7,3 5,8 18 10 NNW 1002,9 35
21.10.2018 21:00:00 7,4 7,1 14 8 NNW 1002,7 16
21.10.2018 20:00:00 7,3 6,6 4 2 SSW 1003,9 11
21.10.2018 19:00:00 7,6 6,1 4 2 N 1005,1 45
21.10.2018 18:00:00 8,2 6,2 4 2 S 1005,8 50
21.10.2018 17:00:00 8,5 6,3 4 2 NW 1006,3 50
21.10.2018 16:00:00 9,4 5,9 4 2 N 1007,5 50
21.10.2018 15:00:00 9,0 5,4 7 4 SE 1008,1 50
21.10.2018 14:00:00 8,6 5,0 7 4 SE 1008,7 50
21.10.2018 13:00:00 8,5 5,1 7 4 SE 1009,1 50
21.10.2018 12:00:00 7,8 4,7 4 2 SSE 1010,0 50
21.10.2018 11:00:00 6,9 4,7 7 4 SSE 1010,9 50
21.10.2018 10:00:00 6,8 6,2 7 4 SE 1011,1 45
21.10.2018 09:00:00 5,0 4,9 4 2 SE 1011,1 50
21.10.2018 08:00:00 3,8 3,7 4 2 ESE 1012,0 30
21.10.2018 07:00:00 3,3 3,2 0 0 N 1012,2 28
21.10.2018 06:00:00 2,3 2,2 0 0 N 1012,8 23
21.10.2018 05:00:00 1,7 1,6 4 2 NNW 1013,8 22
21.10.2018 04:00:00 -0,1 -0,2 0 0 N 1014,9 50
21.10.2018 03:00:00 -0,2 -0,3 4 2 NW 1016,4 50
21.10.2018 02:00:00 -0,4 -0,5 4 2 W 1017,5 50
21.10.2018 01:00:00 -0,5 -0,6 4 2 WNW 1018,6 50
21.10.2018 00:00:00 -0,4 -0,4 4 2 NW 1019,1 35
20.10.2018 23:00:00 -0,3 -0,3 7 4 NNW 1019,5 50
20.10.2018 22:00:00 -0,4 -0,5 4 2 W 1019,9 28
20.10.2018 21:00:00 -1,3 -1,4 0 0 N 1020,3 12
20.10.2018 20:00:00 1,0 0,7 4 2 N 1020,4 50
20.10.2018 19:00:00 2,4 1,5 4 2 N 1020,4 50
20.10.2018 18:00:00 3,9 2,9 7 4 NNW 1020,2 50
20.10.2018 17:00:00 6,9 2,8 4 2 N 1020,0 50
20.10.2018 16:00:00 10,0 3,1 11 6 NNW 1019,8 50
20.10.2018 15:00:00 10,8 2,4 14 8 WNW 1019,8 40
20.10.2018 14:00:00 10,7 3,2 7 4 WNW 1019,7 45
20.10.2018 13:00:00 9,8 2,9 11 6 NW 1019,3 50
20.10.2018 12:00:00 7,8 2,3 4 2 WSW 1019,3 40
20.10.2018 11:00:00 4,7 1,7 4 2 WNW 1019,4 50
20.10.2018 10:00:00 2,9 1,6 4 2 NNW 1019,0 50
20.10.2018 09:00:00 1,2 1,1 7 4 NW 1018,3 40
20.10.2018 08:00:00 1,2 1,2 7 4 WNW 1018,0 3,5
20.10.2018 07:00:00 1,7 1,6 4 2 WNW 1017,8 0,3
20.10.2018 06:00:00 1,8 1,7 0 0 N 1017,5 0,5
20.10.2018 05:00:00 2,3 2,0 4 2 W 1017,7 50
20.10.2018 04:00:00 2,1 1,8 0 0 N 1017,8 1,9
20.10.2018 03:00:00 3,4 3,0 4 2 NW 1018,0 50
20.10.2018 02:00:00 3,8 3,4 0 0 N 1018,4 45
20.10.2018 01:00:00 3,8 3,2 0 0 N 1018,6 50
20.10.2018 00:00:00 3,3 2,4 4 2 N 1018,5 50
19.10.2018 23:00:00 3,8 2,8 7 4 NNW 1018,7 50
19.10.2018 22:00:00 4,9 4,2 4 2 NNW 1019,0 50
19.10.2018 21:00:00 5,1 3,4 4 2 N 1019,1 50
19.10.2018 20:00:00 - - - - - - -
19.10.2018 19:00:00 5,9 2,9 4 2 E 1019,1 50
19.10.2018 18:00:00 7,4 2,9 0 0 N 1019,0 50
19.10.2018 17:00:00 9,2 3,0 7 4 W 1018,8 50
19.10.2018 16:00:00 10,3 2,9 7 4 W 1019,2 50
19.10.2018 15:00:00 11,3 2,6 18 10 W 1019,1 45
19.10.2018 14:00:00 11,0 2,6 18 10 W 1019,4 35
19.10.2018 13:00:00 10,5 2,6 14 8 WNW 1019,3 50
19.10.2018 12:00:00 9,8 2,4 18 10 WNW 1019,5 45
19.10.2018 11:00:00 8,9 2,5 11 6 WNW 1019,5 40
19.10.2018 10:00:00 8,0 2,2 11 6 WNW 1019,6 40
19.10.2018 09:00:00 7,1 1,6 4 2 WSW 1019,2 45
19.10.2018 08:00:00 6,7 1,2 7 4 WNW 1018,6 50
19.10.2018 07:00:00 7,3 1,6 14 8 W 1018,4 50
19.10.2018 06:00:00 6,9 1,4 14 8 W 1018,3 50
19.10.2018 05:00:00 7,2 0,8 7 4 W 1018,5 50
19.10.2018 04:00:00 7,1 1,2 7 4 W 1018,2 50
19.10.2018 03:00:00 6,5 1,0 7 4 WNW 1017,8 50
19.10.2018 02:00:00 5,5 0,1 7 4 SSE 1017,9 50
19.10.2018 01:00:00 4,6 0,2 4 2 SW 1017,9 50
19.10.2018 00:00:00 5,6 0,8 7 4 SW 1017,6 50
18.10.2018 23:00:00 0,2 -0,4 4 2 ESE 1017,6 50
18.10.2018 22:00:00 2,4 1,7 4 2 SW 1017,2 45
18.10.2018 21:00:00 4,1 1,3 4 2 W 1016,8 50
18.10.2018 20:00:00 5,8 1,9 7 4 W 1016,4 50
18.10.2018 19:00:00 5,9 1,4 0 0 N 1016,2 50
18.10.2018 18:00:00 9,5 0,4 7 4 W 1015,7 50
18.10.2018 17:00:00 10,2 0,5 7 4 W 1015,1 50
18.10.2018 16:00:00 11,3 1,0 11 6 W 1014,9 45
18.10.2018 15:00:00 11,7 1,6 14 8 W 1014,6 50
18.10.2018 14:00:00 11,8 3,8 11 6 W 1014,4 45
18.10.2018 13:00:00 11,5 4,7 14 8 W 1014,2 40
18.10.2018 12:00:00 10,7 4,8 4 2 W 1014,2 45
18.10.2018 11:00:00 7,5 6,9 0 0 N 1014,1 45
18.10.2018 10:00:00 6,4 6,1 0 0 N 1014,0 45
18.10.2018 09:00:00 5,2 5,1 0 0 N 1013,4 45
18.10.2018 08:00:00 5,1 5,1 7 4 NNW 1012,7 45
18.10.2018 07:00:00 5,2 5,2 4 2 NW 1012,3 40
18.10.2018 06:00:00 5,2 5,2 4 2 NNW 1012,3 30
18.10.2018 05:00:00 4,8 4,7 4 2 NNW 1012,0 50
18.10.2018 04:00:00 5,2 5,1 4 2 SE 1012,0 40
18.10.2018 03:00:00 5,4 5,4 7 4 WNW 1011,5 17
18.10.2018 02:00:00 5,7 5,7 4 2 NW 1011,5 19
18.10.2018 01:00:00 5,7 5,6 0 0 N 1011,3 11
18.10.2018 00:00:00 6,0 5,7 4 2 NNW 1011,1 30
17.10.2018 23:00:00 7,3 6,9 7 4 W 1010,9 50
17.10.2018 22:00:00 6,2 6,2 4 2 NNW 1011,0 18

tt = Température de l'air
td = dewpoint
ff = Vitesse du vent
dd = Direction du vent
ppp = reduced air pressure
vv = visibility

stations d'obs. à proximité